• MPC Preparation (Info)

  • MPEC 2004-U02 : 2004 TL19

    The following Minor Planet Electronic Circular may be linked-to from your own Web pages, but must not otherwise be redistributed electronically.

    A form allowing access to any MPEC is at the bottom of this page.


    Read MPEC 2004-U01 Read MPEC 2004-U03


    M.P.E.C. 2004-U02                                Issued 2004 Oct. 16, 11:54 UT
    
         The Minor Planet Electronic Circulars contain information on unusual
             minor planets and routine data on comets.  They are published
       on behalf of Commission 20 of the International Astronomical Union by the
              Minor Planet Center, Smithsonian Astrophysical Observatory,
                              Cambridge, MA 02138, U.S.A.
    
                      Supported in part by the Brinson Foundation
                 Prepared using the Tamkin Foundation Computer Network
    
                                  MPC@CFA.HARVARD.EDU
              URL http://cfa-www.harvard.edu/iau/mpc.html  ISSN 1523-6714
    
                                       2004 TL19
    
    Observations:
         K04T19L* C2004 10 15.24803 23 55 39.06 +14 40 04.1          19.2   EU002704
         K04T19L  C2004 10 15.25899 23 55 40.64 +14 39 33.7          19.5   EU002704
         K04T19L  C2004 10 15.26993 23 55 42.31 +14 39 01.7          19.4   EU002704
         K04T19L  C2004 10 15.28088 23 55 43.95 +14 38 31.2          19.6   EU002704
         K04T19L  C2004 10 15.29184 23 55 45.56 +14 37 59.6          19.8   EU002704
         K04T19L  C2004 10 15.99536 23 57 42.29 +14 04 28.5          18.2 R EU002176
         K04T19L  C2004 10 15.99628 23 57 42.43 +14 04 25.7          18.1 R EU002176
         K04T19L  C2004 10 15.99722 23 57 42.57 +14 04 23.0          17.9 R EU002176
         K04T19L  C2004 10 15.99815 23 57 42.72 +14 04 20.4          18.3 R EU002176
         K04T19L  C2004 10 15.99909 23 57 42.85 +14 04 17.5          18.5 R EU002176
         K04T19L  C2004 10 16.40251 23 58 50.05 +13 44 47.5          18.4 R EU002H06
         K04T19L  C2004 10 16.40430 23 58 50.33 +13 44 42.6          18.6 R EU002H06
    
    Observer details:
    176 Observatori Astronomic de Consell.  Observers A. Lopez, R. Pacheco,
        J. Forteza.  0.41-m f/4 reflector + CCD.
    704 Lincoln Laboratory ETS, New Mexico.  Observers M. Blythe, F. Shelly,
        M. Bezpalko, R. Huber, L. Manguso, D. Torres, R. Kracke, M. McCleary,
        H. Stange, A. Milner.  Measurers J. Stuart, R. Sayer, J. Evans, J. Kommers.
        1.0-m f/2.15 reflector + CCD.
    H06 New Mexico Skies Observatory.  Observer R. Hutsebaut.  0.25-m reflector
        + CCD.
    
    Orbital elements:
    2004 TL19
    Epoch 2004 Oct. 2.0 TT = JDT 2453280.5                  MPC
    M 350.12398              (2000.0)            P               Q
    n   0.25532564     Peri.  192.92080     +0.73226084     -0.67201297
    a   2.4607818      Node   210.23301     +0.64271110     +0.73553750
    e   0.5275829      Incl.   12.66779     +0.22520325     +0.08592529
    P   3.86           H   20.7           G   0.15
    From 12 observations 2004 Oct. 15-16.
    
    Ephemeris:
    2004 TL19                a,e,i = 2.46, 0.53, 13                  q = 1.1625
    Date    TT    R. A. (2000) Decl.     Delta      r     Elong.  Phase     V
    2004 10 12    23 47.33   +17 04.8    0.224    1.209   157.7    18.3    18.8
    2004 10 22    00 16.34   +08 53.0    0.200    1.182   157.5    18.8    18.5
    2004 11 01    00 54.27   -00 41.5    0.192    1.167   152.8    22.9    18.5
    2004 11 11    01 36.68   -09 16.2    0.203    1.163   145.4    28.9    18.8
    2004 11 21    02 17.95   -14 54.8    0.229    1.170   138.9    33.7    19.2
    2004 12 01    02 54.26   -17 24.3    0.267    1.188   134.4    36.4    19.7
    2004 12 11    03 24.62   -17 29.3    0.315    1.217   131.6    37.2    20.1
    2004 12 21    03 50.13   -15 58.0    0.372    1.255   129.8    37.0    20.5
    2004 12 31    04 12.32   -13 30.2    0.438    1.301   128.3    36.4    21.0
    2005 01 10    04 32.45   -10 33.3    0.513    1.353   126.5    35.8    21.4
    2005 01 20    04 51.55   -07 26.5    0.598    1.410   124.3    35.2    21.8
    
    Timothy B. Spahr             (C) Copyright 2004 MPC           M.P.E.C. 2004-U02
    

    Read MPEC 2004-U01 Read MPEC 2004-U03


    MPEC number:

    Enter an MPEC number in one of the following forms:

    • 1997-B01 (the full form)
    • J97B01 (the packed version of the full form)
    • B01 (the abbreviated form)